Regional Weather Roundup
Issued by NWS Goodland, KS

Home | Current Version | Previous Version | Graphics & Text | Print | Product List | Glossary On
Versions: 1 2 3 4 5 6 7 8 9 10 11 12 13 14 15 16 17 18 19 20 21 22 23 24 25 26 27 28 29 30 31 32 33 34 35 36 37 38 39 40 41 42 43 44 45 46 47 48 49 50
000
ASUS43 KGLD 190659
RWRGLD

GOODLAND FORECAST AREA HOURLY WEATHER ROUNDUP
NATIONAL WEATHER SERVICE GOODLAND KS
1200 AM MST THU JAN 19 2017

...OFFICIAL OBSERVATIONS...

CITY           SKY/WX    TMP DP  RH WIND       PRES   REMARKS
GOODLAND KS    CLOUDY    27  25  92 CALM      29.66F
HILL CITY KS   CLOUDY    43  42  97 S10       29.74F
IMPERIAL NEB   CLOUDY    28  26  92 W3        29.68F
MCCOOK NEB     FOG       30  30 100 CALM      29.70F VSB<1/4
AKRON CO       CLOUDY    29  18  63 W7        29.65F
BURLINGTON CO  CLOUDY    30  25  81 SW9       29.66F
LIMON CO       CLOUDY    16  13  88 N6        29.66F
$$

...UNOFFICIAL OBSERVATIONS...

CITY           SKY/WX    TMP DP  RH WIND       PRES   REMARKS
LENORA KS        N/A     39  32  76 S6          N/A
SHARON SPRINGS   N/A     29  27  91 CALM        N/A
TRENTON NEB      N/A     31  32 100 CALM        N/A
KIT CARSON CO    N/A     25  22  89 CALM        N/A
YUMA CO        FAIR      16  12  86 W10       29.66S WCI   3
$$




USA.gov is the U.S. government's official web portal to all federal, state and local government web resources and services.